Tracking 26544 objects as of 9-Dec-2022
HD Live streaming from Space Station
objects crossing your sky now

ATLAS 5 CENTAUR DEB

Track ATLAS 5 CENTAUR DEB now!


NORAD ID: 49369
Int'l Code: 2018-079FW
Perigee: 9,210.8 km
Apogee: 35,800.8 km
Inclination: 10.8 °
Period: 813.9 minutes
Semi major axis: 28876 km
RCS: Unknown
Launch date: October 17, 2018
Source: United States (US)
Launch site: AIR FORCE EASTERN TEST RANGE (AFETR)

Note: This is SATELLITE DEBRIS
aabbcc
Your satellite tracking list
Your tracking list is empty




NASA's NSSDC Master Catalog

Two Line Element Set (TLE):
1 49369U 18079FW  22330.29132743 -.00000054  00000-0  00000+0 0  9996
2 49369  10.7602 166.5163 4604048  64.6231 335.7877  1.76921411  8139
Source of the keplerian elements: AFSPC